Location: Haieshausen
(51.8387°N, 9.9720°E)
Time: 04:20:44
(UTC+00:00)

Cosmos 2369 - Pass Details

Date: 14 July 2020
Orbit: 838 x 857 km, 71.0° (Epoch: 10 August)

Event Time Altitude Azimuth Distance (km) Brightness Sun altitude
Rises 01:38:14 0° 327° (NNW) 3,436 7.2 -11.1°
Reaches altitude 10° 01:40:43 10° 323° (NW) 2,497 6.4 -10.9°
Maximum altitude 01:46:19 57° 247° (WSW) 1,010 3.8 -10.4°
Drops below altitude 10° 01:51:54 10° 170° (S) 2,485 5.7 -9.9°
Sets 01:54:23 0° 167° (SSE) 3,417 6.5 -9.7°
